Sachs Harbour Airport, Northwest Territories

Past 24 Hour Conditions

This table is a summary of hourly weather conditions for the past 24 hours. This summary includes the following parameters: temperature, humidity, dew point, wind speed and direction, air pressure, visibility and/or wind chill and humidex.
Date / Time
(MDT)
Conditions Temp (°C) Humidity (%) Dew Point (°C) Wind (km/h) Pressure (kPa) Visibility (km)
29 July 2014
2:00 N/A 0   97 0 NW 23 102.0 N/A
1:00 N/A 1 98 1 NW 19 102.0 N/A
00:00 N/A 2 95 1 NW 20 102.0 N/A
28 July 2014
23:00 N/A 2 94 1 NNW 24 102.0 N/A
22:00 N/A 2 92 1 NNW 25 101.9 N/A
21:00 N/A 3 90 1 NNW 24 102.0 N/A
20:00 N/A 3 91 2 NNW 23 102.0 N/A
19:00 N/A 4 92 3 N 20 102.0 N/A
18:00 N/A 4 93 3 N 20 102.0 N/A
17:00 Light Rain 4 94 3 N 18 102.1 16
16:00 Light Rain 5   93 3 N 18 102.2 16
15:00 Light Rain 5   91 4 NNE 15 102.2 16
14:00 Light Rain 5   88 3 NNE 18 102.2 16
13:00 Cloudy 5   86 2 NE 18 102.2 16
12:00 Cloudy 4 88 2 NE 17 102.3 16
11:00 Cloudy 3 88 2 NE 22 102.3 16
10:00 Cloudy 4 88 2 NE 22 102.3 16
9:00 Cloudy 3 95 2 NNE 24 102.3 16
8:00 Cloudy 3 92 1 NNE 28 102.3 16
7:00 Cloudy 3 92 1 N 22 102.4 16
6:00 N/A 2 93 1 NNE 24 gust 36 102.3 N/A
5:00 N/A 2 96 2 N 25 102.3 N/A
4:00 N/A 2 97 2 N 26 102.3 N/A
3:00 N/A 2 97 2 N 30 102.3 N/A
2:00 N/A 2 98 2 N 26 102.3 N/A
N/A
Not available
 ↑ 
Highest temperature
 ↓ 
Lowest temperature

If you require additional historical weather information, please visit Climate Data Online.